Hourly Weather Bolshoe Kolesovo

Today, 31 July, Saturday

Time Temperature Precipitation Wind Pressure Humidity
00:00 +13°C° 0 mm 4 mps 717 mmHg 90%
01:00 +13°C° 0 mm 4 mps 717 mmHg 90%
02:00 +13°C° 0 mm 4 mps 717 mmHg 90%
03:00 +13°C° 0 mm 4 mps 718 mmHg 91%
04:00 +13°C° 0 mm 4 mps 718 mmHg 91%
05:00 +14°C° 0 mm 4 mps 718 mmHg 88%
06:00 +15°C° 0 mm 4 mps 718 mmHg 85%
07:00 +17°C° 0 mm 4 mps 718 mmHg 82%
08:00 +18°C° 0 mm 4 mps 718 mmHg 77%
09:00 +19°C° 0 mm 4 mps 719 mmHg 72%
10:00 +20°C° 0 mm 4 mps 719 mmHg 67%
11:00 +21°C° 0 mm 4 mps 718 mmHg 64%
12:00 +22°C° 0 mm 4 mps 718 mmHg 62%
13:00 +23°C° 0 mm 4 mps 718 mmHg 59%
14:00 +23°C° 0 mm 4 mps 718 mmHg 59%
15:00 +23°C° 0 mm 4 mps 718 mmHg 60%
16:00 +23°C° 0 mm 4 mps 717 mmHg 60%
17:00 +22°C° 0 mm 4 mps 717 mmHg 65%
18:00 +21°C° 0 mm 3 mps 717 mmHg 70%
19:00 +19°C° 0 mm 3 mps 717 mmHg 75%
20:00 +19°C° 0 mm 3 mps 717 mmHg 77%
21:00 +18°C° 0 mm 3 mps 717 mmHg 78%
22:00 +17°C° 0 mm 3 mps 717 mmHg 80%
23:00 +17°C° 0 mm 3 mps 717 mmHg 79%

Tomorrow, 1 August, Sunday

Time Temperature Precipitation Wind Pressure Humidity
00:00 +17°C° 0 mm 4 mps 717 mmHg 79%
01:00 +17°C° 0 mm 4 mps 716 mmHg 79%
02:00 +17°C° 0 mm 4 mps 716 mmHg 79%
03:00 +17°C° 0 mm 4 mps 716 mmHg 80%
04:00 +17°C° 0 mm 4 mps 716 mmHg 81%
05:00 +18°C° 0 mm 4 mps 716 mmHg 79%
06:00 +19°C° 0 mm 4 mps 716 mmHg 77%
07:00 +19°C° 0 mm 4 mps 716 mmHg 74%
08:00 +21°C° 0 mm 4 mps 716 mmHg 70%
09:00 +22°C° 0 mm 5 mps 715 mmHg 65%
10:00 +23°C° 0 mm 5 mps 715 mmHg 60%
11:00 +25°C° 0 mm 4 mps 715 mmHg 57%
12:00 +26°C° 0 mm 4 mps 714 mmHg 54%
13:00 +26°C° 0 mm 4 mps 714 mmHg 50%
14:00 +27°C° 0 mm 3 mps 714 mmHg 49%
15:00 +27°C° 0 mm 3 mps 713 mmHg 48%
16:00 +27°C° 0 mm 3 mps 713 mmHg 47%
17:00 +25°C° 0 mm 2 mps 713 mmHg 56%
18:00 +23°C° 0 mm 2 mps 713 mmHg 64%
19:00 +21°C° 0 mm 1 mps 712 mmHg 73%
20:00 +20°C° 0 mm 1 mps 712 mmHg 74%
21:00 +19°C° 0 mm 1 mps 712 mmHg 75%
22:00 +18°C° 0 mm 1 mps 712 mmHg 77%
23:00 +18°C° 0 mm 1 mps 712 mmHg 78%

Day after tomorrow, 2 August, Monday

Time Temperature Precipitation Wind Pressure Humidity
00:00 +16°C° 0 mm 1 mps 711 mmHg 79%
01:00 +16°C° 0 mm 1 mps 711 mmHg 81%
02:00 +16°C° 0 mm 1 mps 711 mmHg 83%
03:00 +16°C° 0 mm 1 mps 711 mmHg 85%
04:00 +16°C° 0 mm 1 mps 710 mmHg 87%
05:00 +16°C° 0 mm 1 mps 711 mmHg 88%
06:00 +16°C° 0 mm 1 mps 711 mmHg 88%
07:00 +16°C° 0 mm 1 mps 711 mmHg 89%
08:00 +16°C° 0.2 mm 1 mps 711 mmHg 89%
09:00 +16°C° 0.2 mm 1 mps 711 mmHg 89%
10:00 +16°C° 0.2 mm 1 mps 711 mmHg 89%
11:00 +16°C° 0.3 mm 1 mps 711 mmHg 91%
12:00 +15°C° 0.3 mm 1 mps 711 mmHg 93%
13:00 +15°C° 0.3 mm 1 mps 711 mmHg 95%
14:00 +14°C° 0.7 mm 2 mps 711 mmHg 96%
15:00 +13°C° 0.7 mm 3 mps 711 mmHg 97%
16:00 +13°C° 0.7 mm 3 mps 711 mmHg 98%
17:00 +13°C° 0.7 mm 4 mps 711 mmHg 98%
18:00 +13°C° 0.7 mm 4 mps 712 mmHg 98%
19:00 +13°C° 0.7 mm 5 mps 712 mmHg 98%
20:00 +13°C° 0.2 mm 5 mps 712 mmHg 97%
21:00 +13°C° 0.2 mm 5 mps 712 mmHg 96%
22:00 +14°C° 0.2 mm 5 mps 712 mmHg 96%
23:00 +14°C° 0.2 mm 6 mps 712 mmHg 95%

3 August, Tuesday

Time Temperature Precipitation Wind Pressure Humidity
00:00 +14°C° 0.2 mm 6 mps 712 mmHg 95%
01:00 +14°C° 0.2 mm 6 mps 712 mmHg 95%
02:00 +13°C° 0 mm 6 mps 712 mmHg 94%
03:00 +13°C° 0 mm 5 mps 712 mmHg 94%
04:00 +13°C° 0 mm 5 mps 712 mmHg 93%
05:00 +13°C° 0 mm 5 mps 713 mmHg 92%
06:00 +13°C° 0 mm 5 mps 713 mmHg 91%
07:00 +13°C° 0 mm 4 mps 713 mmHg 90%
08:00 +14°C° 0.2 mm 4 mps 714 mmHg 91%
09:00 +14°C° 0.2 mm 4 mps 714 mmHg 91%
10:00 +14°C° 0.2 mm 4 mps 714 mmHg 92%
11:00 +14°C° 0.1 mm 4 mps 714 mmHg 92%
12:00 +14°C° 0.1 mm 4 mps 714 mmHg 92%
13:00 +14°C° 0.1 mm 4 mps 715 mmHg 93%
14:00 +14°C° 0 mm 4 mps 715 mmHg 90%
15:00 +16°C° 0 mm 3 mps 715 mmHg 88%
16:00 +16°C° 0 mm 3 mps 715 mmHg 86%
17:00 +16°C° 0 mm 3 mps 715 mmHg 86%
18:00 +16°C° 0 mm 2 mps 715 mmHg 86%
19:00 +16°C° 0 mm 2 mps 715 mmHg 85%
20:00 +15°C° 0 mm 2 mps 714 mmHg 87%
21:00 +15°C° 0 mm 2 mps 714 mmHg 89%
22:00 +14°C° 0 mm 2 mps 714 mmHg 90%
23:00 +14°C° 0 mm 2 mps 714 mmHg 90%

4 August, Wednesday

Time Temperature Precipitation Wind Pressure Humidity
00:00 +14°C° 0 mm 2 mps 714 mmHg 89%
01:00 +14°C° 0 mm 2 mps 714 mmHg 89%
02:00 +14°C° 0 mm 2 mps 714 mmHg 88%
03:00 +13°C° 0 mm 2 mps 714 mmHg 88%
04:00 +13°C° 0 mm 2 mps 714 mmHg 87%
05:00 +15°C° 0 mm 1 mps 714 mmHg 81%
06:00 +18°C° 0 mm 1 mps 714 mmHg 75%
07:00 +20°C° 0 mm 1 mps 714 mmHg 69%
08:00 +21°C° 0 mm 1 mps 714 mmHg 63%
09:00 +23°C° 0 mm 1 mps 714 mmHg 57%
10:00 +24°C° 0 mm 2 mps 714 mmHg 51%
11:00 +25°C° 0 mm 1 mps 714 mmHg 47%
12:00 +26°C° 0 mm 1 mps 713 mmHg 43%
13:00 +27°C° 0 mm 1 mps 713 mmHg 39%
14:00 +27°C° 0 mm 1 mps 713 mmHg 40%
15:00 +27°C° 0 mm 2 mps 713 mmHg 41%
16:00 +26°C° 0 mm 2 mps 713 mmHg 42%
17:00 +24°C° 0 mm 2 mps 712 mmHg 52%
18:00 +21°C° 0 mm 2 mps 712 mmHg 61%
19:00 +19°C° 0 mm 3 mps 712 mmHg 70%
20:00 +18°C° 0 mm 3 mps 712 mmHg 72%
21:00 +17°C° 0 mm 3 mps 712 mmHg 73%
22:00 +16°C° 0 mm 2 mps 712 mmHg 74%
23:00 +15°C° 0 mm 2 mps 712 mmHg 75%

5 August, Thursday

Time Temperature Precipitation Wind Pressure Humidity
00:00 +15°C° 0 mm 2 mps 712 mmHg 76%
01:00 +15°C° 0 mm 2 mps 712 mmHg 77%
02:00 +14°C° 0 mm 2 mps 712 mmHg 78%
03:00 +14°C° 0 mm 2 mps 712 mmHg 79%
04:00 +14°C° 0 mm 2 mps 712 mmHg 80%
05:00 +15°C° 0.1 mm 1 mps 712 mmHg 79%
06:00 +16°C° 0.1 mm 1 mps 713 mmHg 78%
07:00 +18°C° 0.1 mm 1 mps 713 mmHg 77%
08:00 +18°C° 0.1 mm 2 mps 713 mmHg 74%
09:00 +19°C° 0.1 mm 2 mps 713 mmHg 72%
10:00 +20°C° 0.1 mm 2 mps 713 mmHg 70%
11:00 +20°C° 0.4 mm 2 mps 713 mmHg 70%
12:00 +20°C° 0.4 mm 2 mps 713 mmHg 71%
13:00 +21°C° 0.4 mm 2 mps 713 mmHg 71%
14:00 +19°C° 1.1 mm 2 mps 713 mmHg 78%
15:00 +18°C° 1.1 mm 2 mps 712 mmHg 84%
16:00 +16°C° 1.1 mm 2 mps 712 mmHg 91%
17:00 +16°C° 1.7 mm 2 mps 712 mmHg 93%
18:00 +15°C° 1.7 mm 1 mps 712 mmHg 96%
19:00 +15°C° 1.7 mm 1 mps 712 mmHg 98%
20:00 +14°C° 0.4 mm 1 mps 712 mmHg 98%
21:00 +14°C° 0.4 mm 1 mps 712 mmHg 98%
22:00 +14°C° 0.4 mm 1 mps 712 mmHg 98%
23:00 +14°C° 0 mm 1 mps 712 mmHg 98%
Show more

We Need Your Consent

Meteoprog and our Service Providers may store and access personal data such as cookies, device identifiers or other similar technologies on your device and process such data to personalise content and ads, as well as provide social media features and to analyse the traffic.

  • Store and/or access information on your device

    Cookies, device identifiers or other information can be stored or accessed on your device for the purposes indicated above.

  • Personalised ads and content, ad and content measurement, audience insights, and products development

    Ads and content can be personalised based on a profile. More data can be added to better personalise ads and content. Ad and content performance can be measured. Insights about the audience who saw the ads and content can be derived. Such data can be used to develop or improve user’s experience, systems and software.

By clicking ‘I Agree’ you will allow the use of indicated cookies, device identifiers, web beacons or other similar technologies. Your settings can be changed in the browser on your device.

For certain purposes, legitimate interests may be relied on, rather than consent. You can read more about this in our Privacy and Cookie Policy.